{"data":{"norad_id":39773,"intl_designator":"2014-030A","name":"EUTELSAT 3B","alt_names":[],"object_type":"PAYLOAD","status":"ACTIVE","operator":null,"country":"EUTE","launch_date":"2014-05-26","launch_site_code":"SEAL","launch_vehicle":null,"mission":null,"orbit_class":"UNKNOWN","rcs_meters":79.4381,"size_class":null,"mass_kg":null,"dimensions":null,"purposes":["comms"],"wikipedia_slug":null,"has_3d_model":false,"image_url":null,"decayed_at":null,"tle_current":{"epoch":"2026-05-25T03:45:32.172768Z","epoch_age_seconds":57909,"freshness":"FRESH","line1":"1 39773U 14030A   26145.15662237  .00000018  00000+0  00000+0 0  9994","line2":"2 39773   0.0684  16.0617 0004013  45.1539 241.0142  1.00273217 43830","mean_motion":1.00273217,"eccentricity":0.0004013,"inclination_deg":0.0684,"raan_deg":16.0617,"arg_perigee_deg":45.1539,"mean_anomaly_deg":241.0142,"bstar":0,"rev_number":4383,"period_min":1436.0763951554,"perigee_km":35769.272978546,"apogee_km":35803.114070224,"semimajor_km":42164.330524385,"source":"CELESTRAK","updated_at":"2026-05-25T13:38:13.950898Z"}}}